TimeEDT,TemperatureF,Dew PointF,Humidity,Sea Level PressureIn,VisibilityMPH,Wind Direction,Wind SpeedMPH,Gust SpeedMPH,PrecipitationIn,Events,Conditions,WindDirDegrees,DateUTC
12:53 AM,57.9,51.1,78,29.79,10.0,WNW,19.6,23.0,N/A,,Overcast,300,2012-10-29 04:53:00
1:51 AM,57.2,48.2,72,29.78,10.0,NW,12.7,21.9,N/A,,Overcast,310,2012-10-29 05:51:00
1:53 AM,57.0,48.9,74,29.78,10.0,WNW,13.8,-,N/A,,Overcast,300,2012-10-29 05:53:00
2:53 AM,57.0,46.9,69,29.78,10.0,WNW,15.0,-,N/A,,Overcast,300,2012-10-29 06:53:00
3:53 AM,57.0,45.0,64,29.78,10.0,NW,13.8,19.6,N/A,,Overcast,310,2012-10-29 07:53:00
5:53 AM,53.1,44.1,71,29.78,10.0,WNW,13.8,-,N/A,,Clear,290,2012-10-29 09:53:00
6:53 AM,51.1,43.0,74,29.79,10.0,WNW,11.5,20.7,N/A,,Clear,300,2012-10-29 10:53:00
7:53 AM,50.0,42.1,74,29.82,10.0,NW,17.3,25.3,N/A,,Clear,310,2012-10-29 11:53:00
8:53 AM,51.1,41.0,68,29.84,10.0,WNW,16.1,24.2,N/A,,Clear,300,2012-10-29 12:53:00
9:53 AM,53.1,39.0,59,29.86,10.0,NW,18.4,25.3,N/A,,Clear,320,2012-10-29 13:53:00
10:53 AM,57.9,39.9,51,29.85,10.0,WNW,15.0,24.2,N/A,,Clear,300,2012-10-29 14:53:00
11:53 AM,60.1,39.0,46,29.83,10.0,WNW,17.3,21.9,N/A,,Clear,290,2012-10-29 15:53:00
1:53 PM,64.0,37.9,38,29.78,10.0,West,15.0,21.9,N/A,,Clear,280,2012-10-29 17:53:00
2:53 PM,66.0,35.1,32,29.75,10.0,West,17.3,23.0,N/A,,Clear,270,2012-10-29 18:53:00
3:53 PM,68.0,34.0,28,29.73,10.0,West,13.8,20.7,N/A,,Clear,280,2012-10-29 19:53:00
4:53 PM,66.9,35.1,31,29.72,10.0,West,13.8,21.9,N/A,,Clear,260,2012-10-29 20:53:00
5:53 PM,64.9,35.1,33,29.72,10.0,West,15.0,-,N/A,,Clear,260,2012-10-29 21:53:00
6:53 PM,61.0,37.9,42,29.74,10.0,West,13.8,-,N/A,,Clear,270,2012-10-29 22:53:00
7:53 PM,59.0,39.9,49,29.77,10.0,West,16.1,21.9,N/A,,Clear,260,2012-10-29 23:53:00
8:53 PM,57.0,39.9,53,29.79,10.0,West,11.5,-,N/A,,Clear,280,2012-10-30 00:53:00
9:53 PM,55.0,37.9,53,29.82,10.0,WNW,9.2,-,N/A,,Clear,290,2012-10-30 01:53:00
10:53 PM,55.0,36.0,49,29.83,10.0,WNW,10.4,-,N/A,,Clear,300,2012-10-30 02:53:00
11:53 PM,54.0,34.0,47,29.84,10.0,WNW,12.7,-,N/A,,Clear,300,2012-10-30 03:53:00